When you browse on this site, cookies collect data to enhance your experience and personalize the content and advertising you see.
Visit our Privacy Policy to learn more. By continuing to use the site, you agree to this use of cookies and data.
  • In Österreich
  • Länderverzeichnis
  • Für 7 Tage
  • Wassertemperatur
  • Satellitenkarten
  • Wetterkarte
  • News
  • Widgets
  • user-avatar
    Anmelden

    Stündliche Wetter Grichinovichi

    Heute, 23 Mai, Donnerstag

    Zeit Temperatur Niederschläge Wind Luftdruck Luftfeuchtigkeit
    00:00 +14°C° 0 mm 1 m/S 744 mmHg 86%
    01:00 +13°C° 0 mm 0 m/S 744 mmHg 86%
    02:00 +13°C° 0 mm 0 m/S 744 mmHg 86%
    03:00 +14°C° 0 mm 1 m/S 744 mmHg 86%
    04:00 +14°C° 0 mm 1 m/S 744 mmHg 86%
    05:00 +14°C° 0 mm 1 m/S 744 mmHg 86%
    06:00 +16°C° 0 mm 1 m/S 744 mmHg 80%
    07:00 +19°C° 0 mm 1 m/S 744 mmHg 75%
    08:00 +21°C° 0 mm 1 m/S 745 mmHg 69%
    09:00 +22°C° 0.4 mm 1 m/S 744 mmHg 66%
    10:00 +23°C° 0.4 mm 1 m/S 744 mmHg 62%
    11:00 +24°C° 0.4 mm 1 m/S 744 mmHg 59%
    12:00 +25°C° 0 mm 1 m/S 744 mmHg 55%
    13:00 +25°C° 0 mm 1 m/S 744 mmHg 52%
    14:00 +26°C° 0 mm 1 m/S 744 mmHg 48%
    15:00 +26°C° 0 mm 1 m/S 744 mmHg 49%
    16:00 +26°C° 0 mm 1 m/S 744 mmHg 50%
    17:00 +26°C° 0 mm 1 m/S 744 mmHg 51%
    18:00 +24°C° 0 mm 1 m/S 744 mmHg 57%
    19:00 +22°C° 0 mm 1 m/S 744 mmHg 63%
    20:00 +20°C° 0 mm 1 m/S 744 mmHg 69%
    21:00 +17°C° 0 mm 0 m/S 744 mmHg 72%
    22:00 +16°C° 0 mm 0 m/S 744 mmHg 75%
    23:00 +16°C° 0 mm 0 m/S 744 mmHg 77%

    Morgen, 24 Mai, Freitag

    Zeit Temperatur Niederschläge Wind Luftdruck Luftfeuchtigkeit
    00:00 +16°C° 0 mm 1 m/S 745 mmHg 79%
    01:00 +16°C° 0 mm 1 m/S 745 mmHg 81%
    02:00 +15°C° 0 mm 1 m/S 745 mmHg 83%
    03:00 +15°C° 0 mm 1 m/S 745 mmHg 85%
    04:00 +15°C° 0 mm 1 m/S 745 mmHg 86%
    05:00 +15°C° 0 mm 1 m/S 745 mmHg 88%
    06:00 +18°C° 0 mm 1 m/S 745 mmHg 83%
    07:00 +20°C° 0 mm 1 m/S 745 mmHg 77%
    08:00 +22°C° 0 mm 1 m/S 745 mmHg 71%
    09:00 +22°C° 0.7 mm 1 m/S 745 mmHg 69%
    10:00 +23°C° 0.7 mm 2 m/S 745 mmHg 67%
    11:00 +24°C° 0.7 mm 2 m/S 745 mmHg 65%
    12:00 +25°C° 0 mm 2 m/S 745 mmHg 62%
    13:00 +25°C° 0 mm 2 m/S 745 mmHg 58%
    14:00 +26°C° 0 mm 2 m/S 744 mmHg 54%
    15:00 +25°C° 0.5 mm 2 m/S 744 mmHg 59%
    16:00 +25°C° 0.5 mm 2 m/S 744 mmHg 65%
    17:00 +24°C° 0.5 mm 2 m/S 744 mmHg 70%
    18:00 +21°C° 0.2 mm 2 m/S 744 mmHg 76%
    19:00 +20°C° 0.2 mm 2 m/S 744 mmHg 83%
    20:00 +18°C° 0.2 mm 2 m/S 744 mmHg 90%
    21:00 +18°C° 0.7 mm 2 m/S 744 mmHg 91%
    22:00 +17°C° 0.7 mm 2 m/S 744 mmHg 93%
    23:00 +16°C° 0.7 mm 2 m/S 744 mmHg 95%

    übermorgen, 25 Mai, Samstag

    Zeit Temperatur Niederschläge Wind Luftdruck Luftfeuchtigkeit
    00:00 +16°C° 0 mm 2 m/S 744 mmHg 95%
    01:00 +15°C° 0 mm 2 m/S 743 mmHg 96%
    02:00 +15°C° 0 mm 1 m/S 743 mmHg 96%
    03:00 +15°C° 0 mm 1 m/S 743 mmHg 96%
    04:00 +15°C° 0 mm 2 m/S 743 mmHg 96%
    05:00 +15°C° 0 mm 2 m/S 743 mmHg 96%
    06:00 +16°C° 0 mm 2 m/S 743 mmHg 91%
    07:00 +17°C° 0 mm 2 m/S 744 mmHg 86%
    08:00 +19°C° 0 mm 2 m/S 744 mmHg 82%
    09:00 +20°C° 0 mm 3 m/S 744 mmHg 75%
    10:00 +21°C° 0 mm 4 m/S 744 mmHg 68%
    11:00 +22°C° 0 mm 4 m/S 744 mmHg 61%
    12:00 +23°C° 0 mm 4 m/S 744 mmHg 59%
    13:00 +23°C° 0 mm 4 m/S 744 mmHg 56%
    14:00 +23°C° 0 mm 4 m/S 743 mmHg 54%
    15:00 +23°C° 0.1 mm 4 m/S 743 mmHg 56%
    16:00 +23°C° 0.1 mm 4 m/S 743 mmHg 58%
    17:00 +22°C° 0.1 mm 4 m/S 743 mmHg 59%
    18:00 +20°C° 0 mm 3 m/S 743 mmHg 64%
    19:00 +19°C° 0 mm 3 m/S 743 mmHg 69%
    20:00 +17°C° 0 mm 2 m/S 743 mmHg 74%
    21:00 +16°C° 0 mm 2 m/S 743 mmHg 78%
    22:00 +15°C° 0 mm 2 m/S 744 mmHg 82%
    23:00 +14°C° 0 mm 2 m/S 744 mmHg 86%

    26 Mai, Sonntag

    Zeit Temperatur Niederschläge Wind Luftdruck Luftfeuchtigkeit
    00:00 +14°C° 0 mm 2 m/S 744 mmHg 89%
    01:00 +13°C° 0 mm 2 m/S 744 mmHg 91%
    02:00 +13°C° 0 mm 2 m/S 744 mmHg 94%
    03:00 +12°C° 0 mm 2 m/S 744 mmHg 94%
    04:00 +12°C° 0 mm 2 m/S 745 mmHg 94%
    05:00 +10°C° 0 mm 2 m/S 745 mmHg 95%
    06:00 +13°C° 0 mm 2 m/S 745 mmHg 86%
    07:00 +14°C° 0 mm 2 m/S 745 mmHg 78%
    08:00 +16°C° 0 mm 2 m/S 745 mmHg 70%
    09:00 +17°C° 0 mm 3 m/S 745 mmHg 66%
    10:00 +18°C° 0 mm 3 m/S 745 mmHg 62%
    11:00 +19°C° 0 mm 4 m/S 745 mmHg 59%
    12:00 +20°C° 0 mm 4 m/S 745 mmHg 57%
    13:00 +21°C° 0 mm 5 m/S 744 mmHg 55%
    14:00 +21°C° 0 mm 5 m/S 744 mmHg 53%
    15:00 +21°C° 0 mm 5 m/S 744 mmHg 54%
    16:00 +21°C° 0 mm 5 m/S 744 mmHg 56%
    17:00 +21°C° 0 mm 4 m/S 743 mmHg 58%
    18:00 +19°C° 0.1 mm 4 m/S 743 mmHg 66%
    19:00 +17°C° 0.1 mm 3 m/S 743 mmHg 75%
    20:00 +16°C° 0.1 mm 3 m/S 743 mmHg 84%
    21:00 +14°C° 0 mm 3 m/S 744 mmHg 86%
    22:00 +14°C° 0 mm 2 m/S 744 mmHg 88%
    23:00 +13°C° 0 mm 2 m/S 744 mmHg 90%

    27 Mai, Montag

    Zeit Temperatur Niederschläge Wind Luftdruck Luftfeuchtigkeit
    00:00 +13°C° 0 mm 2 m/S 744 mmHg 91%
    01:00 +12°C° 0 mm 2 m/S 745 mmHg 92%
    02:00 +10°C° 0 mm 3 m/S 745 mmHg 93%
    03:00 +10°C° 0 mm 3 m/S 745 mmHg 93%
    04:00 +10°C° 0 mm 3 m/S 746 mmHg 93%
    05:00 +10°C° 0 mm 3 m/S 746 mmHg 93%
    06:00 +11°C° 0 mm 3 m/S 746 mmHg 85%
    07:00 +12°C° 0 mm 3 m/S 746 mmHg 76%
    08:00 +14°C° 0 mm 4 m/S 747 mmHg 67%
    09:00 +15°C° 0 mm 4 m/S 747 mmHg 65%
    10:00 +17°C° 0 mm 4 m/S 747 mmHg 62%
    11:00 +19°C° 0 mm 4 m/S 747 mmHg 60%
    12:00 +19°C° 0 mm 4 m/S 747 mmHg 59%
    13:00 +20°C° 0 mm 4 m/S 747 mmHg 59%
    14:00 +21°C° 0 mm 4 m/S 747 mmHg 58%
    15:00 +21°C° 0 mm 3 m/S 747 mmHg 59%
    16:00 +21°C° 0 mm 3 m/S 746 mmHg 59%
    17:00 +21°C° 0 mm 2 m/S 746 mmHg 60%
    18:00 +20°C° 0 mm 2 m/S 746 mmHg 65%
    19:00 +20°C° 0 mm 1 m/S 746 mmHg 70%
    20:00 +18°C° 0 mm 1 m/S 746 mmHg 75%
    21:00 +18°C° 0 mm 1 m/S 746 mmHg 77%
    22:00 +16°C° 0 mm 2 m/S 746 mmHg 79%
    23:00 +14°C° 0 mm 3 m/S 746 mmHg 81%

    28 Mai, Dienstag

    Zeit Temperatur Niederschläge Wind Luftdruck Luftfeuchtigkeit
    00:00 +16°C° 0 mm 3 m/S 746 mmHg 79%
    01:00 +16°C° 0 mm 3 m/S 745 mmHg 78%
    02:00 +16°C° 0 mm 3 m/S 745 mmHg 76%
    03:00 +15°C° 0.6 mm 4 m/S 744 mmHg 82%
    04:00 +15°C° 0.6 mm 4 m/S 744 mmHg 88%
    05:00 +15°C° 0.6 mm 5 m/S 743 mmHg 94%
    06:00 +16°C° 1.3 mm 5 m/S 743 mmHg 94%
    07:00 +17°C° 1.3 mm 5 m/S 743 mmHg 94%
    08:00 +17°C° 1.3 mm 5 m/S 742 mmHg 95%
    09:00 +20°C° 0 mm 5 m/S 742 mmHg 88%
    10:00 +22°C° 0 mm 5 m/S 742 mmHg 80%
    11:00 +23°C° 0 mm 5 m/S 742 mmHg 73%
    12:00 +23°C° 0.9 mm 5 m/S 742 mmHg 75%
    13:00 +25°C° 0.9 mm 5 m/S 741 mmHg 76%
    14:00 +25°C° 0.9 mm 5 m/S 741 mmHg 77%
    15:00 +23°C° 1.5 mm 5 m/S 741 mmHg 79%
    16:00 +22°C° 1.5 mm 4 m/S 741 mmHg 81%
    17:00 +22°C° 1.5 mm 3 m/S 741 mmHg 83%
    18:00 +21°C° 0.7 mm 3 m/S 741 mmHg 86%
    19:00 +20°C° 0.7 mm 2 m/S 741 mmHg 89%
    20:00 +20°C° 0.7 mm 2 m/S 741 mmHg 92%
    21:00 +19°C° 0 mm 2 m/S 741 mmHg 92%
    22:00 +19°C° 0 mm 2 m/S 741 mmHg 93%
    23:00 +19°C° 0 mm 2 m/S 741 mmHg 94%
    Mehr zeigen